Sacramento, CA

10:26 PM PST on February 08, 2016 (GMT -0800)
Sacramento Executive

Weather History for KSAC - April, 2012

Change the Weather History Date:

Sunday, April 22, 2012

  Actual Average Record
Temperature  
Mean Temperature 75 °F -  
Max Temperature 90 °F 73 °F 92 °F (2009)
Min Temperature 59 °F 47 °F 39 °F (1978)
Degree Days  
Heating Degree Days 0    
Month to date heating degree days 176  
Cooling Degree Days 10    
Month to date cooling degree days 30  
Year to date cooling degree days 30  
Growing Degree Days 24 (Base 50)    
Moisture  
Dew Point 60 °F    
Average Humidity 65    
Maximum Humidity 97    
Minimum Humidity 32    
Precipitation  
Precipitation 0.00 in 0.04 in 0.52 in (1990)
Month to date precipitation 1.85 0.91  
Year to date precipitation 9.26 10.77  
Since 1 July precipitation 11.61  
Sea Level Pressure  
Sea Level Pressure 29.84 in    
Wind  
Wind Speed 2 mph (SW)    
Max Wind Speed 8 mph    
Max Gust Speed 13 mph    
Visibility 10 miles    
Events      
T = Trace of Precipitation, MM = Missing Value Source: NWS Daily Summary

Daily Weather History Graph

Daily Weather History Graph

Search for Another Location

Airport or City:

Trip Planner

Search our weather history database for the weather conditions in past years. The results will help you decide how hot, cold, wet, or windy it might be!

Date:

Astronomy

Apr. 22, 2012 Rise Set
Actual Time 6:19 AM PDT 7:49 PM PDT
Civil Twilight 5:51 AM PDT 8:17 PM PDT
Nautical Twilight 5:18 AM PDT 8:51 PM PDT
Astronomical Twilight 4:42 AM PDT 9:27 PM PDT
Moon 6:55 AM PDT (4/22) 9:29 PM PDT (4/22)
Length of Visible Light 14h 26m
Length of Day
13h 30m
New Moon, 2% of the Moon is Illuminated
Apr 22
New Moon
Apr 29
First Quarter
May 5
Full
May 12
Last Quarter
May 20
New

Hourly Weather History & Observations

Time (PDT) Temp. Heat Index Dew Point Humidity Pressure Visibility Wind Dir Wind Speed Gust Speed Precip Events Conditions
12:53 AM 64.9 °F - 62.1 °F 90% 29.87 in 10.0 mi Calm Calm - N/A   Clear
1:53 AM 64.0 °F - 61.0 °F 90% 29.86 in 10.0 mi Calm Calm - N/A   Clear
2:53 AM 62.1 °F - 59.0 °F 90% 29.86 in 10.0 mi Calm Calm - N/A   Clear
3:53 AM 62.1 °F - 60.1 °F 93% 29.85 in 10.0 mi Calm Calm - N/A   Clear
4:53 AM 61.0 °F - 59.0 °F 93% 29.85 in 10.0 mi Calm Calm - N/A   Clear
5:53 AM 59.0 °F - 57.2 °F 94% 29.85 in 10.0 mi Calm Calm - N/A   Clear
6:53 AM 60.1 °F - 57.9 °F 93% 29.85 in 10.0 mi Calm Calm - N/A   Clear
7:53 AM 68.0 °F - 62.1 °F 81% 29.87 in 10.0 mi Calm Calm - N/A   Clear
8:53 AM 73.0 °F - 61.0 °F 66% 29.88 in 10.0 mi Calm Calm - N/A   Clear
9:53 AM 77.0 °F - 60.1 °F 56% 29.88 in 10.0 mi Calm Calm - N/A   Clear
10:53 AM 80.1 °F 81.2 °F 62.1 °F 54% 29.88 in 10.0 mi Calm Calm - N/A   Clear
11:53 AM 82.9 °F 84.0 °F 63.0 °F 51% 29.88 in 10.0 mi Calm Calm - N/A   Clear
12:53 PM 84.9 °F 85.0 °F 61.0 °F 44% 29.86 in 10.0 mi Calm Calm - N/A   Clear
1:53 PM 87.1 °F 87.5 °F 62.1 °F 43% 29.85 in 10.0 mi WSW 4.6 mph - N/A   Clear
2:53 PM 89.1 °F 87.3 °F 55.9 °F 32% 29.83 in 10.0 mi Calm Calm - N/A   Clear
3:53 PM 89.1 °F 88.8 °F 60.1 °F 38% 29.81 in 10.0 mi WNW 5.8 mph - N/A   Clear
4:53 PM 87.1 °F 88.9 °F 64.9 °F 48% 29.79 in 10.0 mi WSW 6.9 mph - N/A   Clear
5:53 PM 84.9 °F 85.9 °F 63.0 °F 48% 29.78 in 10.0 mi SW 8.1 mph - N/A   Clear
6:53 PM 80.6 °F 81.1 °F 59.0 °F 48% 29.78 in 10.0 mi SW 8.1 mph - N/A   Clear
7:53 PM 71.1 °F - 60.1 °F 68% 29.79 in 10.0 mi SSW 8.1 mph - N/A   Clear
8:53 PM 64.9 °F - 57.0 °F 75% 29.82 in 10.0 mi SSW 6.9 mph - N/A   Clear
9:53 PM 61.0 °F - 55.0 °F 81% 29.83 in 10.0 mi SW 12.7 mph - N/A   Clear
10:53 PM 59.0 °F - 54.0 °F 83% 29.84 in 10.0 mi SSW 9.2 mph - N/A   Clear
11:53 PM 57.9 °F - 53.1 °F 84% 29.85 in 10.0 mi SSW 8.1 mph - N/A   Clear